Location: �couen
(49.0206°N, 2.3831°E)
Time: 05:29:59
(UTC+00:00)

Cosmos 1758 - Pass Details

Date: 02 June 2022
Orbit: 538 x 557 km, 82.5° (Epoch: 03 July)

Event Time Altitude Azimuth Distance (km) Brightness Sun altitude
Rises 23:17:47 0° 343° (NNW) 2,721 8.5 -18.4°
Reaches altitude 10° 23:20:02 10° 336° (NNW) 1,826 7.1 -18.4°
Maximum altitude 23:23:46 39° 267° (W) 836 4.2 -18.5°
Enters shadow 23:25:00 30° 227° (SW) 991 4.3 -18.5°
